Change the Weather History Date:

Monday, March 25, 2013

  Actual Average Record
Temperature  
Mean Temperature 37 °F -  
Max Temperature 42 °F 38 °F 52 °F (2011)
Min Temperature 32 °F 27 °F 10 °F (1967)
Degree Days  
Heating Degree Days 28    
Moisture  
Dew Point 32 °F    
Average Humidity 88    
Maximum Humidity 100    
Minimum Humidity 60    
Precipitation  
Precipitation 0.38 in - - ()
Sea Level Pressure  
Sea Level Pressure 29.71 in    
Wind  
Wind Speed 4 mph (SSW)    
Max Wind Speed 34 mph    
Max Gust Speed 44 mph    
Visibility 5 miles    
Events Fog , Rain , Snow    
Averages and records for this station are not official NWS values.
T = Trace of Precipitation, MM = Missing Value Source: NWS Daily Summary

Daily Weather History Graph

Daily Weather History Graph

Search for Another Location

Airport or City:

Trip Planner

Search our weather history database for the weather conditions in past years. The results will help you decide how hot, cold, wet, or windy it might be!

Date:

Astronomy

Mar. 25, 2013 Rise Set
Actual Time 6:46 AM AKDT 7:28 PM AKDT
Civil Twilight 6:05 AM AKDT 8:10 PM AKDT
Nautical Twilight 5:15 AM AKDT 9:00 PM AKDT
Astronomical Twilight 4:19 AM AKDT 9:57 PM AKDT
Moon 5:58 PM AKDT (3/25) 5:52 AM AKDT (3/25)
Length of Visible Light 14h 04m
Length of Day
12h 42m
Waxing Gibbous, 97% of the Moon is Illuminated
Mar 25
Waxing Gibbous
Mar 27
Full
Apr 2
Last Quarter
Apr 10
New
Apr 18
First Quarter

Hourly Weather History & Observations

Time (AKDT) Temp. Windchill Dew Point Humidity Pressure Visibility Wind Dir Wind Speed Gust Speed Precip Events Conditions
12:53 AM 33.1 °F 28.7 °F 30.9 °F 92% 29.84 in 9.0 mi NNE 4.6 mph - 0.00 in   Overcast
1:53 AM 33.1 °F - 33.1 °F 100% 29.81 in 10.0 mi Calm Calm - 0.00 in Rain Light Rain
2:53 AM 34.0 °F - 32.0 °F 92% 29.80 in 10.0 mi Calm Calm - 0.00 in Rain Light Rain
3:39 AM 33.8 °F - 30.2 °F 87% 29.78 in 7.0 mi Calm Calm - 0.01 in Rain Light Rain
4:53 AM 33.1 °F - 32.0 °F 96% 29.75 in 5.0 mi Calm Calm - 0.03 in Snow Light Snow
5:02 AM 33.8 °F - 32.0 °F 93% 29.76 in 4.0 mi Calm Calm - 0.00 in Snow Light Snow
5:13 AM 33.8 °F 30.8 °F 30.2 °F 87% 29.76 in 3.0 mi SW 3.5 mph - 0.01 in Snow Light Snow
5:25 AM 32.0 °F - 30.2 °F 93% 29.75 in 2.0 mi Calm Calm - 0.01 in Snow Light Snow
5:35 AM 32.0 °F - 30.2 °F 93% 29.75 in 1.5 mi Calm Calm - 0.02 in Snow Light Snow
5:53 AM 32.0 °F - 32.0 °F 100% 29.74 in 1.5 mi Calm Calm - 0.03 in Snow Light Snow
6:07 AM 32.0 °F - 30.2 °F 93% 29.73 in 1.2 mi Calm Calm - 0.01 in Snow Light Snow
6:17 AM 32.0 °F - 30.2 °F 93% 29.73 in 1.5 mi Calm Calm - 0.02 in Snow Light Snow
6:27 AM 32.0 °F - 30.2 °F 93% 29.73 in 2.5 mi Calm Calm - 0.02 in Snow Light Snow
6:53 AM 32.0 °F - 32.0 °F 100% 29.73 in 1.8 mi Calm Calm - 0.04 in Snow Light Snow
7:11 AM 32.0 °F - 32.0 °F 100% 29.72 in 1.0 mi Calm Calm - 0.01 in Snow Light Snow
7:30 AM 32.0 °F - 32.0 °F 100% 29.70 in 0.8 mi Calm Calm - 0.03 in Snow Light Snow
7:41 AM 32.0 °F - 32.0 °F 100% 29.71 in 0.5 mi Calm Calm - 0.04 in Fog , Snow Snow
7:53 AM 32.0 °F - 32.0 °F 100% 29.70 in 0.5 mi Calm Calm - 0.05 in Fog , Snow Snow
8:11 AM 32.0 °F - 32.0 °F 100% 29.70 in 1.0 mi Calm Calm - 0.01 in Snow Light Snow
8:28 AM 32.0 °F - 32.0 °F 100% 29.70 in 0.5 mi Calm Calm - 0.03 in Fog , Snow Snow
8:53 AM 32.0 °F - 32.0 °F 100% 29.70 in 0.8 mi Calm Calm - 0.06 in Snow Light Snow
9:53 AM 32.0 °F - 30.9 °F 96% 29.69 in 0.8 mi Calm Calm - 0.09 in Snow Light Snow
10:16 AM 32.0 °F - 30.2 °F 93% 29.69 in 1.0 mi Calm Calm - 0.01 in Snow Light Snow
10:42 AM 32.0 °F - 30.2 °F 93% 29.68 in 1.2 mi Calm Calm - 0.04 in Snow Light Snow
10:53 AM 33.1 °F - 32.0 °F 96% 29.68 in 1.5 mi Calm Calm - 0.05 in Snow Light Snow
11:05 AM 33.8 °F - 33.8 °F 100% 29.68 in 1.8 mi Calm Calm - 0.00 in Snow Light Snow
11:12 AM 33.8 °F - 32.0 °F 93% 29.68 in 3.0 mi Calm Calm - 0.01 in Snow Light Snow
11:53 AM 34.0 °F - 32.0 °F 92% 29.68 in 7.0 mi Calm Calm - 0.02 in Rain Light Rain
12:53 PM 37.9 °F 33.5 °F 34.0 °F 86% 29.66 in 10.0 mi Variable 5.8 mph - 0.00 in   Overcast
1:22 PM 41.0 °F 33.5 °F 35.6 °F 81% 29.66 in 10.0 mi South 13.8 mph 28.8 mph N/A   Overcast
1:35 PM 41.0 °F 33.1 °F 35.6 °F 81% 29.66 in 10.0 mi SSW 15.0 mph 24.2 mph N/A   Overcast
1:53 PM 41.0 °F 31.4 °F 34.0 °F 76% 29.65 in 10.0 mi SSW 21.9 mph 29.9 mph N/A   Overcast
2:53 PM 41.0 °F 34.3 °F 35.1 °F 79% 29.68 in 10.0 mi SSW 11.5 mph 21.9 mph 0.00 in   Overcast
3:53 PM 42.1 °F 34.9 °F 33.1 °F 70% 29.68 in 10.0 mi SSW 13.8 mph - N/A   Mostly Cloudy
4:53 PM 42.1 °F 36.1 °F 28.9 °F 60% 29.69 in 10.0 mi SSW 10.4 mph - N/A   Partly Cloudy
5:53 PM 41.0 °F 37.1 °F 28.9 °F 62% 29.68 in 10.0 mi SSW 5.8 mph - N/A   Overcast
6:53 PM 39.9 °F 30.0 °F 30.0 °F 68% 29.68 in 10.0 mi SSW 21.9 mph 38.0 mph 0.01 in   Overcast
7:53 PM 39.0 °F 26.4 °F 30.9 °F 73% 29.67 in 10.0 mi SSW 34.5 mph 39.1 mph N/A   Overcast
8:53 PM 39.0 °F 27.0 °F 30.9 °F 73% 29.68 in 10.0 mi SSW 31.1 mph 42.6 mph N/A   Overcast
9:53 PM 39.0 °F 27.0 °F 32.0 °F 76% 29.68 in 10.0 mi SSW 31.1 mph 41.4 mph N/A   Overcast
10:53 PM 39.0 °F 26.8 °F 30.9 °F 73% 29.67 in 10.0 mi SSW 32.2 mph 42.6 mph N/A   Overcast
11:53 PM 39.0 °F 26.6 °F 30.9 °F 73% 29.66 in 10.0 mi SSW 33.4 mph 43.7 mph N/A   Overcast